Location: Newark
(49.3000°N, 9.4667°E)
Time: 23:56:12
(UTC+00:00)

Tiros 1 - Pass Details

Date: 24 May 2019
Orbit: 631 x 664 km, 48.4° (Epoch: 19 June)

Event Time Altitude Azimuth Distance (km) Brightness Sun altitude
Rises 12:19:47 0° 266° (W) 2,936 10.7 59.0°
Reaches altitude 10° 12:22:06 10° 266° (W) 2,032 10.1 58.8°
Maximum altitude 12:26:47 82° 179° (S) 657 8.7 58.4°
Drops below altitude 10° 12:31:32 10° 93° (E) 2,054 9.7 58.0°
Sets 12:33:53 0° 92° (E) 2,970 10.4 57.8°
